World > North America > United States > South Carolina > Eutaw Springs

Eutaw Springs, SC Hourly Weather Conditions

Feedback E-mail the Weather

Quick WX

Eutaw Springs, SC Weather Maps

°F °C°F °C
Eutaw Springs Weather Map
UTC Time: 11/27/2022, 18:25
Your Time:

Eutaw Springs, SC Regional Weather

Expires:202211271900;;902166
ASUS42 KCAE 271810
RWRCAE
REGIONAL WEATHER ROUNDUP
NATIONAL WEATHER SERVICE COLUMBIA SC
100 PM EST SUN NOV 27 2022

NOTE: "FAIR" INDICATES FEW OR NO CLOUDS BELOW 12,000 FEET WITH NO
SIGNIFICANT WEATHER AND/OR OBSTRUCTIONS TO VISIBILITY.

NOT ALL STATIONS ARE QUALITY CONTROLLED BY THE NATIONAL 
WEATHER SERVICE. USE DATA WITH CAUTION...ESPECIALLY 
DEWPOINT OBSERVATIONS.


SCZ001>059-115-116-135>137-GAZ040-063>065-077-271900-
...UPSTATE SOUTH CAROLINA...
  
CITY           SKY/WX    TMP DP  RH WIND       PRES   REMARKS
ANDERSON       MOSUNNY   70  54  56 SW12G21   29.70F                  
6HR MIN TEMP:  53; 6HR MAX TEMP:  71; 6HR PCP:  0.18;                

LIBERTY        PTSUNNY   65  56  75 MISG      29.70F                  
6HR MIN TEMP:  51; 6HR MAX TEMP:  66; 6HR PCP:  0.43;                

SPARTANBURG    MOSUNNY   68  52  56 SW18G28   29.66F                  
CLEMSON        MOSUNNY   67  54  63 SW14G25   29.70F                  
6HR MIN TEMP:  50; 6HR MAX TEMP:  67; 6HR PCP:  0.21;                

GREENVILLE     PTSUNNY   66  56  70 W15G28    29.70F                  
6HR MIN TEMP:  52; 6HR MAX TEMP:  68; 6HR PCP:  0.25;                

GREENWOOD      SUNNY     73  49  42 SW16G36   29.71F                  
6HR MIN TEMP:  54; 6HR MAX TEMP:  73; 6HR PCP:  0.32;                

GREER          MOSUNNY   67  56  67 SW23G30   29.69F                  
6HR MIN TEMP:  49; 6HR MAX TEMP:  67; 6HR PCP:  0.36;                

ROCK HILL      PTSUNNY   69  64  84 SW12G17   29.66F                  
6HR MIN TEMP:  58; 6HR MAX TEMP:  69;                                

CHESTER        CLOUDY    68  64  88 SW7       29.67F                  
LAURENS        MOSUNNY   72  59  64 SW17G29   29.68F                  


...CENTRAL SOUTH CAROLINA...
  
CITY           SKY/WX    TMP DP  RH WIND       PRES   REMARKS
COLUMBIA APT   PTSUNNY   75  65  70 SW15G23   29.70F                  
6HR MIN TEMP:  54; 6HR MAX TEMP:  76; 6HR PCP:  0.10;                

COLUMBIA OWENS PTSUNNY   87  66  49 SW14G24   29.72F                  
6HR MIN TEMP:  63; 6HR MAX TEMP:  87; 6HR PCP:  0.10;                

MCENTIRE ANGB  CLOUDY    75  70  83 SW18G24   29.69F                  
6HR MIN TEMP:  56; 6HR MAX TEMP:  75; 6HR PCP:  0.16;                

ORANGEBURG     MOSUNNY   75  69  81 SW20G26   29.73F                  
6HR MIN TEMP:  60; 6HR MAX TEMP:  75; 6HR PCP:  0.19;                

SUMTER SHAW    PTSUNNY   73  67  81 SW17      29.70F                  
6HR MIN TEMP:  55; 6HR MAX TEMP:  73; 6HR PCP:  0.09;                

NEWBERRY       SUNNY     73  61  64 SW21G29   29.72F                  
AIKEN          FAIR      76  61  58 SW21G35   29.73F                  
6HR MIN TEMP:  58; 6HR MAX TEMP:  77; 6HR PCP:  0.15;                

BARNWELL       FAIR      77  66  69 SW18G26   29.75F                  
MANNING        CLOUDY    72  66  83 SW9       29.75F                  
CAMDEN         PTSUNNY   73  68  83 S9G21     29.71F                  
LANCASTER      CLOUDY    72  66  83 SW14G20   29.67F                  
WINNSBORO      CLOUDY    70  66  88 SW6G17    29.69F                  


...EASTERN AND COASTAL SOUTH CAROLINA...
  
CITY           SKY/WX    TMP DP  RH WIND       PRES   REMARKS
MYRTLE BEACH   MOSUNNY   72  68  87 S18G28    29.76F                  
6HR MIN TEMP:  66; 6HR MAX TEMP:  72; 6HR PCP: TRACE;                

N MYRTLE BCH   PTSUNNY   71  67  87 SW20G30   29.76F                  
6HR MIN TEMP:  66; 6HR MAX TEMP:  72; 6HR PCP:  0.02;                

CONWAY         FAIR      77  68  73 S20G25    29.74F                  
MARION         RAIN      73  68  83 SW13G22   29.72F                  
HARTSVILLE     CLOUDY    72  68  88 SW9G21    29.70F                  
FLORENCE       CLOUDY    73  69  87 SW14G26   29.71F                  
6HR MIN TEMP:  61; 6HR MAX TEMP:  73; 6HR PCP:  0.15;                

DARLINGTON     CLOUDY    72  69  90 SW18G31   29.70F                  
6HR MIN TEMP:  53; 6HR MAX TEMP:  72;                                

CHARLESTON APT CLOUDY    74  68  81 SW21      29.79F                  
6HR MIN TEMP:  71; 6HR MAX TEMP:  76; 6HR PCP:  0.01;                

MOUNT PLEASANT CLOUDY    72  72 100 S16G22    29.80F                  
WALTERBORO     CLOUDY    73  70  88 S14       29.79F                  
BEAUFORT       HVY RAIN  70  68  93 S6        29.79F FOG              
6HR MIN TEMP:  70; 6HR MAX TEMP:  74; 6HR PCP:  0.01;                

HILTON HEAD    CLOUDY    70  68  94 SW12G23   29.83F                  


...EASTERN GEORGIA...
  
CITY           SKY/WX    TMP DP  RH WIND       PRES   REMARKS
AUGUSTA BUSH F SUNNY     78  55  44 SW21G28   29.73F                  
6HR MIN TEMP:  65; 6HR MAX TEMP:  79; 6HR PCP:  0.15;                

AUGUSTA DANIEL   N/A     77  46  33 SW17G32   29.74F                  
6HR MIN TEMP:  60; 6HR MAX TEMP:  77; 6HR PCP:  0.11;                

THOMSON        SUNNY     75  42  30 SW16G31   29.75F                  
6HR MIN TEMP:  62; 6HR MAX TEMP:  76; 6HR PCP:  0.08;                

WASHINGTON     FAIR      71  45  39 SW17G31   29.75F                  
6HR MIN TEMP:  59; 6HR MAX TEMP:  72; 6HR PCP:  0.16;                

CLAXTON        PTSUNNY   78  67  70 W15G23    29.81F                  
6HR MIN TEMP:  69; 6HR MAX TEMP:  79;                                

SYLVANIA       PTSUNNY   78  69  73 SW15      29.79F                  
6HR MIN TEMP:  68; 6HR MAX TEMP:  78;                                

STATESBORO     MOSUNNY   75  65  71 W16G24    29.80F                  
6HR MIN TEMP:  67; 6HR MAX TEMP:  75;                                

SAVANNAH       CLOUDY    72  68  87 SW17G31   29.81                   
6HR MIN TEMP:  69; 6HR MAX TEMP:  77; 6HR PCP:  0.20;                



...SOUTHERN NORTH CAROLINA...
  
CITY           SKY/WX    TMP DP  RH WIND       PRES   REMARKS
CHARLOTTE      PTSUNNY   69  63  81 SW13      29.66F                  
6HR MIN TEMP:  51; 6HR MAX TEMP:  69; 6HR PCP:  1.09;                

MONROE         PTSUNNY   70  65  84 SW18G29   29.66F                  
6HR MIN TEMP:  52; 6HR MAX TEMP:  70; 6HR PCP:  0.59;                

WADESBORO      PTSUNNY   69  66  90 S8        29.67F                  
6HR MIN TEMP:  50; 6HR MAX TEMP:  69; 6HR PCP:  0.70;                

ROCKINGHAM     CLOUDY    71  68  92 SW16      29.67F                  
6HR MIN TEMP:  55; 6HR MAX TEMP:  71; 6HR PCP:  0.38;                

RUTHERFORDTON  PTSUNNY   59  55  88 S16G22    29.66F                  
ASHEVILLE      SUNNY     63  50  62 S20G28    29.65F                  
6HR MIN TEMP:  47; 6HR MAX TEMP:  64; 6HR PCP:  0.25;                


$$
  

SKY/WX - Weather  TMP - Temperature  DP - Dew Point  RH - Humidity
WIND - Wind Direction/Speed PRES - Barometric Pressure VSB - Visibility
WCI - Wind Chill Index E13G22 Wind - East Wind 13 mph/Gusts of 22 mph

Trending Headlines

Trending Entertainment Headlines

Eutaw Springs Radar Loop

Use the map search tool if you want to place a location marker on the radar map...

Eutaw Springs Quick Facts

National Two Day Weather Forecast


E-mail the Eutaw Springs Weather Forecast

Voice your opinion or tell us about page issues...